Weather History for KACK - September, 2014

Change the Weather History Date:

Monday, September 22, 2014

  Actual Average Record
Temperature  
Mean Temperature 66 °F -  
Max Temperature 72 °F 69 °F 76 °F (1957)
Min Temperature 57 °F 55 °F 34 °F (1973)
Cooling Degree Days 1    
Growing Degree Days 16 (Base 50)    
Moisture  
Dew Point 60 °F    
Average Humidity 79    
Maximum Humidity 100    
Minimum Humidity 53    
Precipitation  
Precipitation 0.01 in - - ()
Sea Level Pressure  
Sea Level Pressure 29.75 in    
Wind  
Wind Speed 14 mph (West)    
Max Wind Speed 26 mph    
Max Gust Speed 31 mph    
Visibility 7 miles    
Events      
Averages and records for this station are not official NWS values.
T = Trace of Precipitation, MM = Missing Value Source: NWS Daily Summary

Daily Weather History Graph

Daily Weather History Graph

Search for Another Location

Airport or City:

Trip Planner

Search our weather history database for the weather conditions in past years. The results will help you decide how hot, cold, wet, or windy it might be!

Date:

Astronomy

Sep. 22, 2014 Rise Set
Actual Time 6:27 AM EDT 6:37 PM EDT
Civil Twilight 6:00 AM EDT 7:05 PM EDT
Nautical Twilight 5:27 AM EDT 7:37 PM EDT
Astronomical Twilight 4:54 AM EDT 8:10 PM EDT
Moon 4:52 AM EDT (9/22) 5:43 PM EDT (9/22)
Length of Visible Light 13h 04m
Length of Day
12h 09m
Waning Crescent, 2% of the Moon is Illuminated
Sep 22
Waning Crescent
Sep 24
New
Oct 1
First Quarter
Oct 8
Full
Oct 15
Last Quarter

Hourly Weather History & Observations

Time (EDT) Temp. Dew Point Humidity Pressure Visibility Wind Dir Wind Speed Gust Speed Precip Events Conditions
12:53 AM 66.9 °F 66.0 °F 97% 29.57 in 10.0 mi West 10.4 mph - N/A   Overcast
1:53 AM 66.9 °F 64.9 °F 93% 29.57 in 10.0 mi West 10.4 mph - N/A   Partly Cloudy
2:53 AM 66.9 °F 64.9 °F 93% 29.59 in 10.0 mi WSW 15.0 mph - 0.01 in   Mostly Cloudy
3:00 AM 66.2 °F 66.2 °F 100% 29.59 in 6.0 mi WSW 12.7 mph - N/A   Mostly Cloudy
3:05 AM 66.2 °F 66.2 °F 100% 29.59 in 1.8 mi WSW 13.8 mph - N/A   Overcast
3:30 AM 66.2 °F 66.2 °F 100% 29.59 in 0.8 mi WSW 17.3 mph 24.2 mph N/A   Mist
4:12 AM 66.2 °F 64.4 °F 94% 29.61 in 1.5 mi WSW 16.1 mph 25.3 mph N/A   Overcast
4:34 AM 66.2 °F 66.2 °F 100% 29.62 in 3.0 mi WSW 12.7 mph 20.7 mph N/A   Overcast
4:53 AM 66.9 °F 66.0 °F 97% 29.62 in 5.0 mi WSW 13.8 mph - N/A   Overcast
5:53 AM 66.9 °F 66.0 °F 97% 29.65 in 4.0 mi WSW 13.8 mph - N/A   Overcast
6:11 AM 66.2 °F 66.2 °F 100% 29.66 in 4.0 mi WSW 12.7 mph - N/A   Overcast
6:53 AM 66.9 °F 66.0 °F 97% 29.68 in 3.0 mi WSW 13.8 mph - N/A   Overcast
7:38 AM 68.0 °F 66.2 °F 94% 29.69 in 6.0 mi WSW 12.7 mph - N/A   Scattered Clouds
7:53 AM 68.0 °F 66.0 °F 93% 29.70 in 6.0 mi WSW 12.7 mph - N/A   Clear
8:53 AM 70.0 °F 62.1 °F 76% 29.73 in 10.0 mi West 12.7 mph - N/A   Clear
9:53 AM 71.1 °F 62.1 °F 73% 29.75 in 10.0 mi West 17.3 mph 24.2 mph N/A   Scattered Clouds
10:53 AM 70.0 °F 57.9 °F 65% 29.76 in 10.0 mi West 26.5 mph 31.1 mph N/A   Clear
11:53 AM 71.1 °F 57.9 °F 63% 29.77 in 10.0 mi West 17.3 mph 28.8 mph N/A   Clear
12:53 PM 71.1 °F 57.0 °F 61% 29.78 in 6.0 mi WSW 21.9 mph - N/A   Haze
1:53 PM 72.0 °F 57.0 °F 59% 29.79 in 10.0 mi WSW 20.7 mph 27.6 mph N/A   Clear
2:53 PM 71.1 °F 57.9 °F 63% 29.81 in 4.0 mi WSW 19.6 mph 28.8 mph N/A   Haze
3:53 PM 70.0 °F 57.9 °F 65% 29.83 in 10.0 mi WSW 21.9 mph 26.5 mph N/A   Clear
4:53 PM 69.1 °F 57.0 °F 65% 29.85 in 10.0 mi WSW 16.1 mph 26.5 mph N/A   Clear
5:53 PM 68.0 °F 57.0 °F 68% 29.87 in 10.0 mi WSW 15.0 mph - N/A   Clear
6:53 PM 64.9 °F 55.9 °F 73% 29.91 in 10.0 mi West 10.4 mph - N/A   Clear
7:53 PM 62.1 °F 48.9 °F 62% 29.94 in 10.0 mi WNW 6.9 mph - N/A   Clear
8:53 PM 62.1 °F 48.0 °F 60% 29.97 in 10.0 mi WNW 8.1 mph - N/A   Clear
9:53 PM 63.0 °F 46.0 °F 54% 30.01 in 10.0 mi NW 16.1 mph 21.9 mph N/A   Clear
10:53 PM 60.1 °F 43.0 °F 53% 30.05 in 10.0 mi NW 13.8 mph 23.0 mph N/A   Clear
11:53 PM 57.9 °F 42.1 °F 56% 30.07 in 10.0 mi NW 18.4 mph - N/A   Clear